TURKSAT 4A

Last updated on Thu Nov 21 2024 00:02:42 GMT+0000 (Coordinated Universal Time)

1 39522U 14007A 24325.23105135 .00000147 00000+0 00000+0 0 9999 2 39522 0.0482 267.4195 0005157 346.1851 291.3459 1.00274638 39227
UTC large
Height (km)
Speed (km/s)
/
Latitude / Longitude
Inclination (degrees)
Orbital Period (minutes)
Azimuth
Elevation
Range (km)
Doppler Factor

Next 0 passes for location: London (51.5072 / 0.1276)

Sorry there are no passes over London.